[[{"header":{"parameterUnit":"m.s-1","parameterCategory":1,"la1":30.2991,"la2":30.254,"lo1":-89.0895,"lo2":-89.0444,"dy":0.0017,"dx":0.0017,"nx":28,"ny":28,"refTime":"2025-11-26T03:00:00:Z","depth":0,"parameterNumber":2,"parameterNumberName":"U-component_of_WINDS"},"data":[0,0,0,0,0,0,0,0,0,0,0,0,0,0,0,0,0,0,0,0,0,0,0,0,0,0,0,0,0,0,0,0,0,0,0,0,0,0,0,0,0,0,0,0,0,0,0,0,0,0,0,0,0,0,0,0,0,0,0.4529,0.4529,0,0.4528,0.4528,0.4528,0.4538,0.4539,0.4539,0.4539,0.4537,0.4537,0.4536,0,0,0,0,0,0,0,0,0,0,0,0,0,0.454,0.454,0.4529,0.4529,0.4529,0.4528,0.4528,0.4528,0.4538,0.4539,0.4539,0.4539,0.4537,0.4537,0.4536,0,0,0,0,0,0,0,0,0,0,0,0,0,0.4536,0.4539,0.4529,0.4534,0.4534,0.4528,0.4528,0.4528,0.4538,0.4539,0.4539,0.4539,0.4537,0.4537,0.4536,0.4525,0,0,0.4535,0.4535,0,0,0,0,0,0,0,0,0.4537,0.4536,0.4533,0.4534,0.4534,0.4534,0.4531,0.4527,0.4538,0.4537,0.4539,0.454,0.4535,0.4535,0.4534,0.4524,0.4524,0.4535,0.4534,0.4534,0.4534,0,0,0,0,0,0,0,0.4537,0.4536,0.4528,0.4533,0.4534,0.4536,0.4536,0.453,0.4534,0.4537,0.4538,0.4537,0.4536,0.4534,0.4534,0.4524,0.4535,0.4534,0.4534,0.4534,0.4507,0.4506,0,0,0,0,0,0,0.4536,0.4536,0.4528,0.4528,0.4536,0.4536,0.4536,0.4533,0.4534,0.4534,0.4537,0.4538,0.4535,0.4535,0.4534,0.4521,0.4534,0.4534,0.4533,0.4507,0.4507,0.4506,0,0,0,0,0,0,0.4537,0.4536,0.4528,0.4533,0.4532,0.4535,0.4532,0.4533,0.4532,0.4534,0.4534,0.4535,0.4535,0.4535,0.4527,0.4521,0.4534,0.4533,0.4508,0.4507,0.4507,0.4494,0,0,0,0,0,0,0.4537,0.4536,0.4531,0.4532,0.4532,0.4521,0.4532,0.4533,0.4531,0.4532,0.4532,0.4532,0.4536,0.4528,0.4527,0.452,0.4533,0.4508,0.4508,0.4507,0.4495,0.4493,0.4492,0,0,0,0,0,0.4537,0.4527,0.4531,0.453,0.4526,0.4521,0.4521,0.4525,0.453,0.4526,0.4528,0.4532,0.4522,0.4527,0.4526,0.4519,0.4509,0.4508,0.4507,0.4496,0.4494,0.4492,0,0,0,0,0,0,0.4524,0.4527,0.4531,0.4521,0.4521,0.4523,0.4517,0.4522,0.452,0.4521,0.4526,0.4526,0.4518,0.4518,0.4523,0.4509,0.4516,0.4515,0.4509,0.4506,0.4505,0.4504,0.4532,0,0,0,0,0,0.452,0.4516,0.4519,0.451,0.451,0.4514,0.4512,0.4515,0.4515,0.4514,0.4516,0.4515,0.4512,0.4509,0.4506,0.4496,0.4496,0.4491,0.4489,0.4488,0.4486,0.4482,0.448,0.4503,0.4503,0.4503,0,0,0.4511,0.4513,0.4509,0.4507,0.4507,0.4503,0.4513,0.4508,0.4505,0.4514,0.4507,0.4508,0.4508,0.4499,0.4495,0.4499,0.448,0.4487,0.4485,0.4485,0.4481,0.4478,0.4476,0.4503,0.4503,0.4503,0,0,0.4493,0.4494,0.4486,0.4487,0.4488,0.4491,0.4489,0.4491,0.4492,0.4486,0.4492,0.4489,0.4483,0.4483,0.4482,0.4467,0.4472,0.4466,0.4456,0.4452,0.445,0.4448,0.4443,0.4441,0.4465,0.4465,0.4465,0,0.4482,0.4476,0.4482,0.4477,0.4476,0.4485,0.4478,0.4478,0.4477,0.4477,0.4481,0.4475,0.4476,0.4468,0.4464,0.4463,0.4462,0.4465,0.445,0.4448,0.4447,0.4442,0.444,0.4464,0.4464,0.4464,0.4464,0,0.4462,0.4458,0.4452,0.4453,0.4451,0.4445,0.4451,0.4449,0.4453,0.4456,0.445,0.4451,0.4449,0.4448,0.4452,0.4441,0.4443,0.4449,0.4456,0.4444,0.4439,0.4437,0.4463,0.4463,0.4464,0.4464,0,0,0.4433,0.4439,0.4436,0.4437,0.444,0.4437,0.4432,0.4431,0.4429,0.4429,0.4425,0.4421,0.4427,0.4426,0.443,0.4426,0.4415,0.4433,0.4433,0.4429,0.4404,0.4399,0.4397,0.4419,0.4418,0.4418,0.4404,0,0.4415,0.4407,0.4414,0.4404,0.4401,0.4411,0.4406,0.4408,0.4411,0.4409,0.4412,0.441,0.4417,0.4417,0.4414,0.4417,0.441,0.4418,0.4415,0.4415,0.4414,0.4394,0.4389,0.4375,0.4402,0.4402,0.4401,0,0.4393,0.4393,0.4383,0.4388,0.4387,0.4383,0.4383,0.4381,0.4384,0.4386,0.4387,0.4393,0.4389,0.4397,0.4392,0.4398,0.4397,0.4399,0.4399,0.4397,0.4406,0.4392,0.437,0.4368,0.4399,0.4399,0.4399,0,0.4372,0.437,0.4365,0.4365,0.437,0.4368,0.437,0.4373,0.4372,0.4373,0.4372,0.4372,0.4372,0.4372,0.4378,0.4384,0.4373,0.4382,0.4375,0.4375,0.4371,0.4371,0.4348,0.4372,0.4372,0.4372,0.4372,0,0.4351,0.4345,0.4356,0.4352,0.4346,0.4354,0.4348,0.4351,0.4354,0.4351,0.436,0.4357,0.4366,0.4365,0.437,0.4365,0.4365,0.4367,0.4368,0.4366,0.4365,0.4364,0.4365,0.4371,0.4371,0.4371,0.4372,0,0.4326,0.4333,0.4328,0.4334,0.4336,0.4331,0.4336,0.4334,0.4338,0.4335,0.4335,0.4342,0.4341,0.4348,0.4348,0.4351,0.4344,0.4347,0.4343,0.4344,0.4337,0.4337,0.4312,0.4309,0.4335,0.4335,0.4335,0,0.4312,0.4307,0.4314,0.4313,0.4315,0.4314,0.4314,0.4323,0.4322,0.4326,0.4323,0.4323,0.4323,0.4321,0.4327,0.4327,0.433,0.4322,0.433,0.4328,0.433,0.4329,0.4329,0.4319,0.4319,0.4318,0.4318,0,0.4285,0.4289,0.4289,0.4291,0.4291,0.4292,0.4294,0.4293,0.4303,0.4302,0.4302,0.4302,0.4303,0.4303,0.4305,0.4308,0.4315,0.4316,0.4314,0.4311,0.4309,0.431,0.4338,0.4316,0.4316,0.4316,0.4316,0.4317,0.4265,0.4262,0.4266,0.4266,0.4269,0.4271,0.4269,0.4275,0.4275,0.4276,0.4282,0.4281,0.4285,0.4289,0.4291,0.4291,0.4295,0.4292,0.4292,0.4291,0.4289,0.431,0.4291,0.4291,0.4291,0.4291,0.4291,0,0.4238,0.4242,0.4242,0.4245,0.4246,0.4254,0.4257,0.4256,0.4255,0.4259,0.426,0.426,0.4261,0.4268,0.4269,0.4268,0.4271,0.4268,0.4267,0.4268,0.4285,0.4286,0.4265,0.4265,0.4265,0.4265,0.4265,0.4265,0.4224,0.422,0.4225,0.4223,0.4227,0.4226,0.4227,0.423,0.4233,0.4233,0.4234,0.4239,0.4244,0.4246,0.4248,0.425,0.425,0.4245,0.4248,0.4264,0.4267,0.4269,0.427,0.4246,0.4246,0.4231,0.4231,0.4231]},{"header":{"parameterUnit":"m.s-1","parameterCategory":1,"la1":30.2991,"la2":30.254,"lo1":-89.0895,"lo2":-89.0444,"dy":0.0017,"dx":0.0017,"nx":28,"ny":28,"refTime":"2025-11-26T03:00:00:Z","depth":0,"parameterNumber":3,"parameterNumberName":"V-component_of_WINDS"},"data":[0,0,0,0,0,0,0,0,0,0,0,0,0,0,0,0,0,0,0,0,0,0,0,0,0,0,0,0,0,0,0,0,0,0,0,0,0,0,0,0,0,0,0,0,0,0,0,0,0,0,0,0,0,0,0,0,0,0,-6.5778,-6.578,0,-6.5939,-6.5941,-6.5943,-6.5865,-6.5861,-6.5857,-6.5853,-6.6012,-6.602,-6.6028,0,0,0,0,0,0,0,0,0,0,0,0,0,-6.5398,-6.5406,-6.5778,-6.578,-6.5782,-6.5939,-6.5941,-6.5943,-6.5866,-6.5861,-6.5856,-6.5851,-6.6009,-6.6019,-6.6028,0,0,0,0,0,0,0,0,0,0,0,0,0,-6.5561,-6.5408,-6.5778,-6.5763,-6.5763,-6.5938,-6.5941,-6.5944,-6.5867,-6.5861,-6.5855,-6.5849,-6.6006,-6.6018,-6.603,-6.6228,0,0,-6.6067,-6.6072,0,0,0,0,0,0,0,0,-6.5552,-6.5575,-6.5763,-6.5764,-6.5765,-6.5876,-6.5865,-6.6039,-6.5868,-6.5827,-6.5853,-6.5846,-6.5971,-6.5986,-6.6029,-6.6235,-6.6242,-6.6068,-6.6075,-6.608,-6.6084,0,0,0,0,0,0,0,-6.5541,-6.5568,-6.5841,-6.5766,-6.5767,-6.5746,-6.5762,-6.5898,-6.5932,-6.583,-6.5825,-6.5846,-6.597,-6.6018,-6.6032,-6.6244,-6.6067,-6.6078,-6.6086,-6.609,-6.662,-6.6627,0,0,0,0,0,0,-6.5531,-6.5559,-6.5836,-6.5846,-6.5641,-6.5758,-6.5776,-6.5846,-6.593,-6.5937,-6.5851,-6.5841,-6.6,-6.6018,-6.6038,-6.6275,-6.608,-6.6091,-6.6098,-6.6614,-6.6622,-6.6629,0,0,0,0,0,0,-6.5523,-6.5557,-6.583,-6.5702,-6.5735,-6.5771,-6.585,-6.5853,-6.59,-6.5945,-6.595,-6.5893,-6.5996,-6.6021,-6.6181,-6.628,-6.6097,-6.6108,-6.6606,-6.6616,-6.6626,-6.6752,0,0,0,0,0,0,-6.5513,-6.5554,-6.5631,-6.5704,-6.5742,-6.5973,-6.5856,-6.586,-6.5922,-6.5911,-6.5987,-6.5993,-6.5993,-6.6164,-6.6194,-6.6293,-6.6117,-6.6597,-6.661,-6.6622,-6.6739,-6.6765,-6.6788,0,0,0,0,0,-6.5499,-6.5659,-6.5636,-6.5669,-6.5839,-6.5979,-6.6,-6.5999,-6.593,-6.6007,-6.6036,-6.5991,-6.6264,-6.6181,-6.6214,-6.6318,-6.6591,-6.6607,-6.6621,-6.6728,-6.676,-6.6787,0,0,0,0,0,0,-6.5595,-6.5668,-6.5643,-6.5831,-6.59,-6.5966,-6.6062,-6.6032,-6.612,-6.6106,-6.6099,-6.6116,-6.6283,-6.6316,-6.6223,-6.6514,-6.6417,-6.6439,-6.6487,-6.6517,-6.6541,-6.6529,-6.6127,0,0,0,0,0,-6.5638,-6.5747,-6.5805,-6.5965,-6.6001,-6.6026,-6.6087,-6.608,-6.615,-6.6178,-6.6218,-6.6286,-6.6387,-6.6454,-6.6549,-6.6743,-6.6758,-6.6831,-6.6856,-6.6875,-6.6895,-6.7,-6.7033,-6.668,-6.668,-6.6679,0,0,-6.5728,-6.5781,-6.585,-6.5986,-6.6038,-6.615,-6.6051,-6.6173,-6.6256,-6.6195,-6.6351,-6.6383,-6.6458,-6.6637,-6.6717,-6.6669,-6.6996,-6.6895,-6.691,-6.6919,-6.7019,-6.7053,-6.7082,-6.669,-6.6688,-6.6687,0,0,-6.5948,-6.6001,-6.614,-6.6195,-6.6276,-6.6292,-6.6326,-6.6397,-6.6417,-6.6573,-6.653,-6.6627,-6.6801,-6.6857,-6.6908,-6.7151,-6.7112,-6.7182,-6.7308,-6.7411,-6.7438,-6.7463,-6.755,-6.7581,-6.7201,-6.7201,-6.7202,0,-6.6049,-6.6218,-6.6215,-6.6342,-6.6402,-6.6355,-6.6496,-6.6548,-6.6656,-6.6698,-6.6643,-6.6862,-6.6909,-6.71,-6.7159,-6.7202,-6.7239,-6.7173,-6.7435,-6.746,-6.7483,-6.7565,-6.7598,-6.7209,-6.7208,-6.7208,-6.7207,0,-6.6338,-6.6456,-6.6558,-6.6666,-6.6738,-6.6871,-6.6886,-6.6959,-6.6946,-6.6967,-6.7126,-6.7181,-6.7287,-6.7332,-6.7319,-6.7521,-6.7489,-6.7436,-6.7337,-6.7524,-6.7602,-6.7633,-6.7221,-6.7218,-6.7215,-6.7213,0,0,-6.6623,-6.6729,-6.6766,-6.6815,-6.6901,-6.6991,-6.7121,-6.7227,-6.729,-6.7365,-6.7473,-6.7623,-6.7574,-6.7632,-6.7624,-6.7715,-6.7904,-6.7649,-6.7651,-6.7695,-6.813,-6.817,-6.8207,-6.7879,-6.7885,-6.789,-6.8124,0,-6.685,-6.7081,-6.7082,-6.7294,-6.7402,-6.7359,-6.7472,-6.7537,-6.756,-6.7654,-6.7678,-6.7784,-6.7711,-6.7746,-6.7834,-6.7862,-6.7991,-6.7845,-6.7978,-6.7983,-6.7962,-6.8248,-6.8291,-6.8509,-6.8154,-6.8159,-6.8163,0,-6.7147,-6.7235,-6.7458,-6.7529,-6.7574,-6.7677,-6.7774,-6.7865,-6.7936,-6.7946,-6.8012,-6.7992,-6.8123,-6.8021,-6.82,-6.8102,-6.8156,-6.8178,-6.8186,-6.8199,-6.8085,-6.8268,-6.8578,-6.8611,-6.821,-6.8206,-6.8203,0,-6.7333,-6.7506,-6.7663,-6.7705,-6.7792,-6.7865,-6.7904,-6.797,-6.8034,-6.8118,-6.8159,-6.8257,-6.831,-6.8386,-6.8392,-6.8317,-6.8573,-6.8471,-6.8584,-6.8584,-6.864,-6.8637,-6.8964,-6.8675,-6.8675,-6.8674,-6.8673,0,-6.7587,-6.7725,-6.7748,-6.7844,-6.7997,-6.7996,-6.8147,-6.818,-6.8239,-6.8339,-6.8307,-6.8401,-6.8404,-6.85,-6.8505,-6.8653,-6.8677,-6.8688,-6.8688,-6.8692,-6.869,-6.8727,-6.8712,-6.8683,-6.8681,-6.8679,-6.8678,0,-6.782,-6.7841,-6.8009,-6.8078,-6.8099,-6.8209,-6.8267,-6.8358,-6.8378,-6.8506,-6.8535,-6.8567,-6.8678,-6.8692,-6.8821,-6.8825,-6.9003,-6.8987,-6.898,-6.8978,-6.909,-6.9079,-6.9453,-6.9502,-6.9181,-6.9184,-6.9186,0,-6.7981,-6.8087,-6.8168,-6.8235,-6.8278,-6.8385,-6.845,-6.8453,-6.8523,-6.8613,-6.8693,-6.8801,-6.8889,-6.9069,-6.9102,-6.9201,-6.9186,-6.931,-6.9201,-6.9201,-6.9188,-6.9182,-6.9193,-6.9331,-6.9335,-6.9338,-6.934,0,-6.8265,-6.827,-6.8367,-6.8468,-6.8548,-6.8627,-6.8701,-6.8756,-6.8769,-6.8848,-6.8963,-6.9031,-6.9164,-6.9272,-6.937,-6.9408,-6.9377,-6.9375,-6.9406,-6.9411,-6.9403,-6.9409,-6.9038,-6.9366,-6.9363,-6.9361,-6.936,-6.9359,-6.8467,-6.8559,-6.8631,-6.874,-6.8797,-6.8867,-6.8957,-6.8989,-6.9086,-6.9196,-6.9191,-6.9318,-6.9386,-6.9515,-6.956,-6.9658,-6.9616,-6.9662,-6.9673,-6.9685,-6.9696,-6.9387,-6.9675,-6.9675,-6.9674,-6.9673,-6.9673,0,-6.8749,-6.8793,-6.8894,-6.9,-6.9086,-6.9051,-6.9131,-6.9204,-6.9317,-6.9384,-6.9472,-6.9604,-6.9709,-6.9751,-6.9853,-6.9923,-6.9911,-6.995,-6.9945,-6.9954,-6.9727,-6.969,-6.9958,-6.9958,-6.9958,-6.9958,-6.9958,-6.9958,-6.8906,-6.906,-6.9074,-6.9256,-6.9299,-6.9425,-6.9474,-6.9538,-6.9592,-6.9742,-6.983,-6.9857,-6.9914,-7.0021,-7.0115,-7.0124,-7.0163,-7.0209,-7.0212,-6.9999,-6.997,-6.9943,-6.9908,-7.0217,-7.0218,-7.0431,-7.0433,-7.0434]}]]